Showing default

CHECKMATE 7, 56166

Orbit data source: Space-Track

CHECKMATE 7, 56166 is a payload satellite owned by SDA (US) in LEO that was launched on Sun, 02 Apr 2023 UTC via an FALCON 9 launch vehicle from the Air Force Western Test Range (AFWTR). Payload-class satellites include a variety of spacecraft equipped with specific instruments for various scientific and technological missions. These include communications satellites like Starlink; space stations such as the ISS; scientific satellites like the Hubble; Earth observation satellites from companies like Planet Labs, Umbra, and HawkEye 360; GPS; miniature CubeSats for education and research; and military/defense satellites.

Loading next visibility...
Identifier
56166, 2023-050E
Orbit
LEO
Country
Flag of USUS
Related business
Manufacturer
York Space Sys
Mission
Operational Defense Communications
Bus & Motor
S-CLASS, Unknown motor
Mass
~300 kg wet, ~300 kg dry
Launch date (UTC)
2023-04-02 (3 years ago)
Launch vehicle
FALCON 9
Launch site
Air Force Western Test Range (AFWTR)
Object type
Payload
Rocket body
Debris
Shape & HBR
Box + 1 Pan, 1.0 m
Radar Cross Section
0.945 m², Large (>1 m²)

Expand to show TLE details & history
Last TLE update: 2 days ago

TLE from 2 days ago
0 CHECKMATE 7
1 56166U 23050E   26171.42987410  .00000077  00000-0  55598-4 0  9996
2 56166  81.0007  68.0347 0014063 307.9849  52.0037 13.87620939162569
Epoch: 2026-06-20T10:19Z
TLE epoch observation values (Epoch: 2026-06-20T10:19:01.122Z)
Latitude
-0.00008°
Longitude
4.6354°
Altitude
933.516 km
Speed
7.388 km/s
True Right ascension
04h 32m 08s
True Declination
0° 00' 00"
Sunlit
Object was in daylight at epoch
Visualization orbit readout
Latitude
Unknown
Longitude
Unknown
Altitude
Unknown
Speed
Unknown
Apparent Right ascension
Unknown
Apparent Declination
Unknown
Sunlit
N/A
Visualization observer readout
Local Sidereal Time
01:06:05
Azimuth
Unknown
Elevation
Unknown
Doppler factor
Unknown
Orbital elements
Apogee altitude
944.479 km
Perigee altitude
923.913 km
Semi-major axis
7,312.333 km
Eccentricity
0.00141
Inclination
81.0007°
RAAN
68.0347°
Arg. of periapsis
307.9849°
True anomaly
52.13083°
Mean anomaly
52.0037°
Eccentric anomaly
52.06725°
Mean motion
3.47104 °/min
Orbital period
103.72 mins
BSTAR
0.000055598
Loading maneuver chart data...
Computing Atmospheric mass density...
Loading historical data...
Loading historical data...
Loading historical data...
Loading historical data...
Loading historical data...
Loading historical data...
Loading historical data...

Documentation

Showing up to 5 results
|